Regional Weather Roundup
Issued by NWS Tiyan, Guam

Home | Current Version | Previous Version | Text Only | Print | Product List | Glossary On
Versions: 1 2 3 4 5 6 7 8 9 10 11 12 13 14 15 16 17 18 19 20 21 22 23 24 25 26 27 28 29 30 31 32 33 34 35 36 37 38 39 40 41 42 43 44 45 46 47 48 49
000
ASGM40 PGUM 192112
RWRGUM
WEATHER ROUNDUP FOR THE MARIANAS
NATIONAL WEATHER SERVICE TIYAN GU
700 AM CHST SAT DEC 20 2014

GUZ001>004-192200-
MARIANA ISLANDS-

CITY           SKY/WX    TMP DP  RH WIND       PRES   REMARKS
GUAM AIRPORT   PTCLDY    81  73  78 E17G24    29.91R
ANDERSEN AFB   MOCLDY    79  73  83 E22       29.91R
ROTA AIRPORT   MOCLDY    75  73  94 E20G32    29.93R
TINIAN AP      PTCLDY    81  73  78 E16G30    29.91R
SAIPAN AP      PTCLDY    81  73  78 E24G36    29.92R

$$



USA.gov is the U.S. government's official web portal to all federal, state and local government web resources and services.